This is the latest recevied weather packets stored in our database for station/object IK0TIX. If no packets are shown the sender has not sent any weather packets the latest 10 day(s).
| Time | Temp. | Humidity | Pressure | Rain* | Wind** | Luminosity | Snow |
|---|---|---|---|---|---|---|---|
| 1777813478 | 22.78° C | 48% | 1020.7 hPa | 0 mm | - | - | - |
| 1777812582 | 22.78° C | 46% | 1020.6 hPa | 0 mm | - | - | - |
| 1777811984 | 22.78° C | 48% | 1020.6 hPa | 0 mm | - | - | - |
| 1777810778 | 22.78° C | 47% | 1020.9 hPa | 0 mm | - | - | - |
| 1777809884 | 22.78° C | 45% | 1020.9 hPa | 0 mm | - | - | - |
| 1777809584 | 22.78° C | 45% | 1020.9 hPa | 0 mm | - | - | - |
| 1777808979 | 22.78° C | 45% | 1020.8 hPa | 0 mm | - | - | - |
| 1777808676 | 22.78° C | 44% | 1020.9 hPa | 0 mm | - | - | - |
| 1777807769 | 23.33° C | 42% | 1020.7 hPa | 0 mm | - | - | - |
| 1777807212 | 23.33° C | 38% | 1020.8 hPa | 0 mm | - | - | - |
| 1777804196 | 23.33° C | 41% | 1020.9 hPa | 0 mm | - | - | - |
| 1777802974 | 23.33° C | 45% | 1020.9 hPa | 0 mm | - | - | - |
| 1777802074 | 22.22° C | 48% | 1021.1 hPa | 0 mm | - | - | - |
| 1777801790 | 22.22° C | 45% | 1021.2 hPa | 0 mm | - | - | - |
| 1777801189 | 22.78° C | 43% | 1021.3 hPa | 0 mm | - | - | - |
| 1777796987 | 19.44° C | 55% | 1021.8 hPa | 0 mm | - | - | - |
| 1777796391 | 19.44° C | 57% | 1021.8 hPa | 0 mm | - | - | - |
| 1777795188 | 18.89° C | 61% | 1021.9 hPa | 0 mm | - | - | - |
| 1777794885 | 18.89° C | 61% | 1021.9 hPa | 0 mm | - | - | - |
| 1777793705 | 17.22° C | 64% | 1022 hPa | 0 mm | - | - | - |
| 1777787407 | 13.33° C | 71% | 1022.1 hPa | 0 mm | - | - | - |
| 1777787104 | 13.33° C | 71% | 1022 hPa | 0 mm | - | - | - |
| 1777785582 | 12.78° C | 71% | 1021.9 hPa | 0 mm | - | - | - |
| 1777785274 | 12.78° C | 70% | 1021.9 hPa | 0 mm | - | - | - |
| 1777784681 | 12.78° C | 70% | 1021.8 hPa | 0 mm | - | - | - |
* Rain latest hour (hover to see other rain measurements)
** Current wind speed in m/s (hover to see current wind gust speed)